Cloud_Cover
100 84 61 100 100 100 95 100 100 100 100 100 100 100 100 100 100 100 100 100 100 100
86 44 34 87 100 100 96 100 100 100 100 100 100 100 100 100 100 100 100 100 100 100
100 100 100 95 100 100 100 100 100 100 100 100 100 100 100 100 100 100 100 100 100 100
100 100 100 82 72 47 98 100 100 100 100 100 100 100 100 100 100 100 100 100 100 100
100 100 100 100 100 100 100 100 100 100 100 100 100 100 100 100 100 100 100 100 100 100
78 94 100 100 100 100 100 100 100 100 100 100 100 100 100 100 100 100 100 100 100 100
100 100 100 100 100 100 100 100 100 100 100 100 100 100 100 100 100 100 100 100 100 100
100 100 100 100 100 100 100 100 100 100 100 100 100 100 100 100 100 100 100 100 100 100
100 99 100 100 100 100 100 100 100 100 100 100 100 100 100 100 100 100 100 100 100 100
84 100 100 100 100 100 100 100 100 100 100 100 100 100 100 100 100 100 100 100 100 100
5 91 100 100 100 100 100 99 100 100 100 100 100 100 100 100 100 100 100 100 100 100
1 5 7 29 46 51 100 100 96 81 86 73 93 98 71 63 19 3 5 1 5 5
10 10 5 5 6 67 7 5 24 3 45 98 100 93 5 5 18 5 5 5 5 5
5 36 14 33 45 43 22 11 23 20 5 6 5 5 5 5 5 5 5 12 29 14